Location: Antist
(43.1184°N, 0.1270°E)
Time: 21:48:45
(UTC+00:00)

CSL-04 Rocket - Pass Details

Date: 19 January 2020
Orbit: 806 x 860 km, 99.0° (Epoch: 16 February)

Event Time Altitude Azimuth Distance (km) Brightness Sun altitude
Rises 18:27:42 0° 161° (SSE) 3,375 6.8 -16.8°
Reaches altitude 10° 18:30:02 10° 161° (SSE) 2,453 6.0 -17.3°
Maximum altitude 18:35:30 82° 74° (ENE) 863 3.6 -18.2°
Drops below altitude 10° 18:41:03 10° 348° (NNW) 2,498 6.2 -19.2°
Sets 18:43:27 0° 347° (NNW) 3,442 6.9 -19.7°
